Hourly Data Report for January 21, 2021

STE-ANNE-DE-BELLEVUE 1
QUEBEC
Current Station Operator: ECCC - MSC

45°25'38.000" N
73°55'45.000" W
39.00 m
702FHL8
71377
WVQ

Download Data

Hourly Data (January 2021)
Hourly Data Report for January 21, 2021
TIME
LST
Temp Definition
°C
Dew Point Definition
°C
Rel Hum Definition
%
Precip. Amount Definition
mm

Wind Dir Definition
10's deg

Wind Spd Definition
km/h
Visibility Definition
km
Stn Press Definition
kPa
Hmdx Definition


Wind Chill Definition


Weather Definition


00:00 -15.9 -17.6 87 0.0 19 4   101.04   -19 LegendNANA
01:00 -16.0 -17.8 85 0.0 23 7   100.98   -21 LegendNANA
02:00 -17.1 -19.1 85 0.0 8 3   100.82   -19 LegendNANA
03:00 -17.2 -18.8 87 0.0 5 1   100.69   -18 LegendNANA
04:00 -15.7 -17.5 86 0.0 11 1   100.58   -16 LegendNANA
05:00 -11.5 -13.8 83 0.0 13 12   100.43   -18 LegendNANA
06:00 -11.5 -14.1 81 0.0 11 13   100.25   -18 LegendNANA
07:00 -10.8 -13.4 81 0.0 12 15   100.08   -18 LegendNANA
08:00 -10.3 -12.0 87 0.4 11 11   100.02   -16 LegendNANA
09:00 -9.4 -10.8 89 0.8 13 10   99.95   -15 LegendNANA
10:00 -8.4 -9.8 90 0.6 11 12   99.87   -14 LegendNANA
11:00 -8.0 -9.4 90 0.3 11 10   99.75   -13 LegendNANA
12:00 -7.5 -8.8 90 0.5 11 8   99.60   -12 LegendNANA
13:00 -6.8 -8.4 89 0.0 9 7   99.51   -10 LegendNANA
14:00 -8.0 -9.5 88 0.2 3 8   99.44   -12 LegendNANA
15:00 -7.4 -9.0 88 0.2 2 7   99.38   -11 LegendNANA
16:00 -6.1 -7.2 92 0.3 11 4   99.35   -8 LegendNANA
17:00 -6.8 -8.0 91 0.3 2 6   99.29   -10 LegendNANA
18:00 -6.6 -7.7 92 0.2 3 5   99.26   -9 LegendNANA
19:00 -6.8 -7.9 92 0.3 36 6   99.21   -10 LegendNANA
20:00 -7.2 -8.3 92 0.5 35 8   99.20   -11 LegendNANA
21:00 -7.5 -8.7 91 0.6 35 9   99.17   -12 LegendNANA
22:00 -7.3 -8.5 92 0.2 34 8   99.15   -11 LegendNANA
23:00 -7.4 -8.6 91 0.2 36 7   99.17   -11 LegendNANA

Notes on Data Quality.

Legend

  • E = Estimated
  • M = Missing
  • NA = Not Available*
  • [empty] = Indicates an unobserved value
Date modified: